Weather History for KFLL - November, 2014

Change the Weather History Date:

Tuesday, November 25, 2014

  Actual Average Record
Temperature  
Mean Temperature 82 °F 74 °F  
Max Temperature 85 °F 81 °F 90 °F (1947)
Min Temperature 79 °F 68 °F 36 °F (1970)
Degree Days  
Heating Degree Days 0 0  
Month to date heating degree days 6 0  
Since 1 July heating degree days 6 0  
Cooling Degree Days 17 9  
Month to date cooling degree days 238 274  
Year to date cooling degree days 4585 4468  
Growing Degree Days 32 (Base 50)    
Moisture  
Dew Point 74 °F    
Average Humidity 81    
Maximum Humidity 91    
Minimum Humidity 70    
Precipitation  
Precipitation T in 0.09 in 1.61 in (2000)
Month to date precipitation 2.86 2.73  
Year to date precipitation 59.30 59.21  
Snow  
Snow 0.00 in - - ()
Month to date snowfall 0.0  
Since 1 July snowfall 0.0  
Since 1 September snowfall 0.0  
Snow Depth 0.00 in    
Sea Level Pressure  
Sea Level Pressure 29.98 in    
Wind  
Wind Speed 13 mph (SSE)    
Max Wind Speed 24 mph    
Max Gust Speed 28 mph    
Visibility 10 miles    
Events Rain    
T = Trace of Precipitation, MM = Missing Value Source: NWS Daily Summary

Daily Weather History Graph

Daily Weather History Graph

Search for Another Location

Airport or City:

Trip Planner

Search our weather history database for the weather conditions in past years. The results will help you decide how hot, cold, wet, or windy it might be!

Date:

Astronomy

Nov. 25, 2014 Rise Set
Actual Time 6:46 AM EST 5:28 PM EST
Civil Twilight 6:21 AM EST 5:53 PM EST
Nautical Twilight 5:53 AM EST 6:21 PM EST
Astronomical Twilight 5:25 AM EST 6:49 PM EST
Moon 9:33 AM EST (11/25) 8:47 PM EST (11/25)
Length of Visible Light 11h 31m
Length of Day
10h 42m
Waxing Crescent, 12% of the Moon is Illuminated
Nov 25
Waxing Crescent
Nov 29
First Quarter
Dec 6
Full
Dec 14
Last Quarter
Dec 21
New

Hourly Weather History & Observations

Time (EST) Temp. Heat Index Dew Point Humidity Pressure Visibility Wind Dir Wind Speed Gust Speed Precip Events Conditions
12:53 AM 81.0 °F 87.9 °F 77.0 °F 88% 30.03 in 10.0 mi SSE 8.1 mph - N/A   Scattered Clouds
1:53 AM 80.1 °F 85.4 °F 75.9 °F 87% 30.01 in 10.0 mi SSE 9.2 mph - N/A   Scattered Clouds
2:53 AM 81.0 °F 87.3 °F 75.9 °F 85% 30.00 in 10.0 mi SE 10.4 mph - N/A   Scattered Clouds
3:04 AM 81.0 °F 87.3 °F 75.9 °F 85% 30.00 in 10.0 mi SSE 12.7 mph - N/A   Mostly Cloudy
3:28 AM 80.1 °F 85.4 °F 75.9 °F 87% 30.01 in 10.0 mi SSE 13.8 mph - 0.00 in   Mostly Cloudy
3:40 AM 80.1 °F 85.4 °F 75.9 °F 87% 30.00 in 10.0 mi SSE 10.4 mph - 0.00 in Rain Light Rain
3:53 AM 80.1 °F 84.2 °F 73.0 °F 79% 30.00 in 10.0 mi SSE 10.4 mph - 0.00 in   Overcast
4:53 AM 80.1 °F 84.5 °F 73.9 °F 81% 30.00 in 10.0 mi SSE 11.5 mph - N/A   Partly Cloudy
5:53 AM 80.1 °F 85.1 °F 75.0 °F 85% 30.01 in 10.0 mi SE 12.7 mph - N/A   Scattered Clouds
5:55 AM 80.1 °F 85.1 °F 75.0 °F 85% 30.01 in 10.0 mi SE 12.7 mph - N/A   Mostly Cloudy
6:40 AM 80.1 °F 84.5 °F 73.9 °F 81% 30.03 in 10.0 mi SSE 10.4 mph - N/A   Scattered Clouds
6:53 AM 80.1 °F 84.5 °F 73.9 °F 81% 30.02 in 10.0 mi SSE 13.8 mph - N/A   Partly Cloudy
7:53 AM 80.1 °F 84.5 °F 73.9 °F 81% 30.03 in 10.0 mi SE 15.0 mph - N/A   Mostly Cloudy
8:53 AM 81.0 °F 85.8 °F 73.0 °F 77% 30.04 in 10.0 mi SSE 13.8 mph 24.2 mph N/A   Scattered Clouds
9:53 AM 82.9 °F 88.8 °F 73.0 °F 72% 30.04 in 10.0 mi SSE 20.7 mph 26.5 mph N/A   Mostly Cloudy
10:53 AM 82.9 °F 89.4 °F 73.9 °F 74% 30.02 in 10.0 mi South 16.1 mph 23.0 mph N/A   Mostly Cloudy
11:53 AM 84.0 °F 90.2 °F 73.0 °F 69% 29.99 in 10.0 mi SSE 19.6 mph 26.5 mph N/A   Overcast
12:53 PM 82.9 °F 88.8 °F 73.0 °F 72% 29.96 in 10.0 mi SSE 17.3 mph 27.6 mph N/A   Overcast
1:25 PM 84.9 °F 92.1 °F 73.9 °F 69% 29.94 in 10.0 mi SSE 20.7 mph 27.6 mph N/A   Overcast
1:53 PM 84.0 °F 91.2 °F 73.9 °F 72% 29.93 in 10.0 mi SSE 17.3 mph 24.2 mph N/A   Overcast
2:53 PM 82.9 °F 89.4 °F 73.9 °F 74% 29.91 in 10.0 mi SSE 20.7 mph 26.5 mph N/A   Mostly Cloudy
3:06 PM 82.9 °F 89.4 °F 73.9 °F 74% 29.91 in 10.0 mi SSE 13.8 mph - N/A   Mostly Cloudy
3:53 PM 82.0 °F 87.9 °F 73.9 °F 76% 29.92 in 10.0 mi South 10.4 mph - N/A   Mostly Cloudy
4:53 PM 82.0 °F 87.9 °F 73.9 °F 76% 29.93 in 10.0 mi SSE 12.7 mph 23.0 mph N/A   Mostly Cloudy
5:53 PM 81.0 °F 86.7 °F 75.0 °F 82% 29.94 in 10.0 mi South 8.1 mph - N/A   Mostly Cloudy
6:08 PM 81.0 °F 86.7 °F 75.0 °F 82% 29.94 in 10.0 mi South 5.8 mph - N/A   Mostly Cloudy
6:36 PM 81.0 °F 86.7 °F 75.0 °F 82% 29.95 in 10.0 mi South 9.2 mph - N/A   Mostly Cloudy
6:53 PM 81.0 °F 86.7 °F 75.0 °F 82% 29.95 in 10.0 mi South 11.5 mph - N/A   Mostly Cloudy
7:53 PM 80.1 °F 85.1 °F 75.0 °F 85% 29.98 in 10.0 mi South 5.8 mph - N/A   Scattered Clouds
8:53 PM 80.1 °F 83.8 °F 72.0 °F 76% 29.97 in 10.0 mi South 6.9 mph - N/A   Scattered Clouds
9:53 PM 80.1 °F 85.1 °F 75.0 °F 85% 29.97 in 10.0 mi South 6.9 mph - N/A   Scattered Clouds
10:53 PM 80.1 °F 85.4 °F 75.9 °F 87% 29.96 in 10.0 mi SSE 10.4 mph - N/A   Scattered Clouds
11:53 PM 80.1 °F 83.6 °F 71.1 °F 74% 29.93 in 10.0 mi SSE 13.8 mph - N/A   Mostly Cloudy